Regional Weather Roundup
Issued by NWS

Home | Current Version | Previous Version | Text Only | Print | Product List | Glossary Off
Versions: 1 2 3 4 5 6 7 8 9 10 11 12 13 14 15 16 17 18 19 20 21 22 23 24 25 26 27 28 29 30 31 32 33 34 35 36 37 38 39 40 41 42 43 44 45 46 47 48 49 50

892
ASUS43 KFSD 062310
RWRSD

WEATHER ROUNDUP FOR SOUTH DAKOTA
NATIONAL WEATHER SERVICE SIOUX FALLS SD
500 PM CST SAT FEB 06 2016

NOTE: "FAIR" INDICATES FEW OR NO CLOUDS BELOW 12,000 FEET WITH NO
SIGNIFICANT WEATHER AND/OR OBSTRUCTIONS TO VISIBILITY.


SDZ001>005-009-010-012>017-070000-
NORTHWEST AND NORTH CENTRAL SOUTH DAKOTA

CITY           SKY/WX    TMP DP  RH WIND       PRES   REMARKS
BUFFALO          N/A     42  31  64 W28       29.81F
FAITH            N/A     47  24  40 NW29G44   29.82R
MOBRIDGE       PTCLDY    46  31  55 SE5       29.71
$$

SDZ012>016-024>037-041>051-057-063-072>074-070000-
SOUTHWEST AND SOUTH CENTRAL SOUTH DAKOTA

CITY           SKY/WX    TMP DP  RH WIND       PRES   REMARKS
RAPID CTY ARPT CLOUDY    48  27  44 N16       29.85R
PIERRE         CLOUDY    49  30  48 W15       29.80R
CUSTER         CLOUDY    37  20  50 W13G23    29.90R
ELLSWORTH AFB  CLOUDY    49  27  43 NW16      29.86
PHILIP         CLOUDY    45  30  55 W9        29.84R
PINE RIDGE     CLOUDY    44  27  51 W12       29.91F
SPEARFISH      FAIR      46  23  39 NW18G24   29.92R
WINNER         FAIR      44  30  57 SW13      29.83F
$$

SDZ004>011-016>023-039-040-070000-
NORTHEAST SOUTH DAKOTA

CITY           SKY/WX    TMP DP  RH WIND       PRES   REMARKS
ABERDEEN       CLOUDY    41  32  70 S12       29.76F
WATERTOWN      CLOUDY    36  28  73 S9        29.78S
BROOKINGS      CLOUDY    34  28  79 S14       29.81F WCI  25
SISSETON         N/A     38  29  70 W20G30    29.71F
$$

SDZ017-020-022-023-036>040-048>070-070000-
SOUTHEAST SOUTH DAKOTA

CITY           SKY/WX    TMP DP  RH WIND       PRES   REMARKS
SIOUX FALLS    CLOUDY    35  25  66 SW13      29.87F WCI  26
HURON          CLOUDY    38  31  76 S12       29.80F
CHAMBERLAIN    CLOUDY    42  32  66 SW10      29.82F
MITCHELL       CLOUDY    41  33  73 S9        29.83F
YANKTON        PTCLDY    37  27  65 SW9       29.88F
$$

ABBREVIATIONS USED IN REMARKS
   TC - TEMPERATURE IN CELSIUS
  WCI - WIND CHILL INDEX
   HX - HEAT INDEX
  VSB - VISIBILITY





USA.gov is the U.S. government's official web portal to all federal, state and local government web resources and services.